Flag for Bosnia-Herzegovina Weather past 2 weeks in Sarajevo, Bosnia-Herzegovina

Now
46 °F

Passing clouds.


Feels Like: 45 °F
Forecast: 33 / 53 °F
Wind: 3 mph from Southeast

Location: Sarajevo / Butmir

Current Time: Mar 29, 2015 at 10:02:10 PM

Latest Report: Mar 29, 2015 at 9:30 PM


Visibility: N/A

Pressure: 29.86 "Hg

Humidity: 62%

Dew point: 34 °F

Location of SarajevoLocation

Historic Weather in Sarajevo — Graph

°F

Sarajevo temperature yesterday

Maximum temperature yesterday: 45 °F (at 4:30 PM)
Minimum temperature yesterday: 39 °F (at 7:00 AM)
Average temperature yesterday: 42 °F

Past Weeks' High & Low Weather Summary

 TemperatureHumidityPressure
High64 °F (Mar 26, 1:00 PM)100% (Mar 15, 2:00 AM)30.45 "Hg (Mar 15, 2:00 AM)
Low23 °F (Mar 20, 5:00 AM)16% (Mar 21, 4:00 PM)29.65 "Hg (Mar 27, 11:00 AM)
Average45 °F67%30.07 "Hg
* Reported Mar 14 8:00 PM — Mar 29 9:00 PM, Sarajevo, Weather by CustomWeather, © 2015

Note: Actual official high and low records may vary slightly from our data, if they occured in-between our weather recording intervals... More about our weather records

Advertising

Sarajevo weather history for previous 24 hours

 ConditionsComfort  
Time TempWeatherWind HumidityBarometerVisibility
9:00 PM
Sun, Mar 29
48 °FPassing clouds.3 mph62%29.86 "HgN/A
8:30 PM48 °FPassing clouds.5 mph66%29.86 "HgN/A
8:00 PM50 °FPartly sunny.2 mph58%29.86 "HgN/A
7:30 PM50 °FScattered clouds.3 mph58%29.86 "HgN/A
7:00 PM52 °FPassing clouds.6 mph54%29.83 "HgN/A
6:30 PM54 °FPassing clouds.8 mph47%29.83 "HgN/A
6:00 PM54 °FPassing clouds.8 mph44%29.83 "HgN/A
5:30 PM55 °FPassing clouds.9 mph38%29.83 "HgN/A
5:00 PM55 °FPassing clouds.5 mph36%29.83 "HgN/A
4:30 PM55 °FPassing clouds.5 mph36%29.83 "HgN/A
4:00 PM54 °FSunny.5 mph38%29.83 "Hg10 mi
3:30 PM54 °FSunny.5 mph41%29.83 "Hg10 mi
3:00 PM54 °FPassing clouds.5 mph41%29.86 "HgN/A
2:30 PM52 °FPassing clouds.7 mph41%29.86 "HgN/A
2:00 PM54 °FPassing clouds.5 mph41%29.89 "HgN/A
1:30 PM50 °FPassing clouds.3 mph43%29.89 "HgN/A
1:00 PM50 °FPassing clouds.5 mph50%29.92 "HgN/A
12:30 PM48 °FPassing clouds.3 mph46%29.92 "HgN/A
12:00 PM46 °FPassing clouds.5 mph50%29.92 "HgN/A
11:30 AM46 °FScattered clouds.7 mph53%29.95 "HgN/A
11:00 AM46 °FScattered clouds.2 mph50%29.95 "HgN/A
10:30 AM45 °FScattered clouds.5 mph57%29.95 "HgN/A
10:00 AM45 °FScattered clouds.2 mph61%29.95 "HgN/A
9:30 AM43 °FScattered clouds.3 mph61%29.95 "HgN/A
9:00 AM41 °FPassing clouds.1 mph66%29.95 "HgN/A
8:30 AM39 °FPassing clouds.2 mph75%29.95 "HgN/A
8:00 AM39 °FPassing clouds.2 mph81%29.95 "HgN/A
7:30 AM36 °FPassing clouds.1 mph81%29.95 "HgN/A
7:00 AM37 °FPassing clouds.3 mph75%29.95 "HgN/A
6:30 AM39 °FPassing clouds.3 mph75%29.95 "HgN/A
6:00 AM39 °FPassing clouds.2 mph75%29.95 "HgN/A
5:30 AM39 °FPassing clouds.2 mph75%29.95 "HgN/A
5:00 AM41 °FPassing clouds.3 mph70%29.95 "HgN/A
4:00 AM41 °FPassing clouds.3 mph70%29.95 "HgN/A
3:00 AM41 °FPassing clouds.3 mph70%29.98 "HgN/A
1:00 AM41 °FPassing clouds.2 mph70%29.98 "HgN/A
12:00 AM43 °FPassing clouds.5 mph71%29.98 "HgN/A
11:00 PM
Sat, Mar 28
43 °FPassing clouds.3 mph71%29.98 "HgN/A
10:00 PM43 °FPartly cloudy.3 mph71%29.98 "HgN/A
Weather by CustomWeather, © 2015

See weather overviewHow to use our weather pages